• In Belarus
  • List of Countries
  • For 7 days
  • Water Temperature
  • Weather Map
  • Weather Widgets
  • user-avatar
    Login

    Hourly Weather Getafe

    Today, 25 January, Saturday

    Time Temperature Precipitation Wind Pressure Humidity
    00:00 +7°C° 0 mm 3 mps 708 mmHg 83%
    01:00 +7°C° 0.9 mm 3 mps 707 mmHg 86%
    02:00 +5°C° 0.9 mm 3 mps 707 mmHg 88%
    03:00 +5°C° 0.9 mm 3 mps 707 mmHg 91%
    04:00 +5°C° 0.6 mm 4 mps 706 mmHg 90%
    05:00 +6°C° 0.6 mm 4 mps 706 mmHg 89%
    06:00 +7°C° 0 mm 3 mps 706 mmHg 89%
    07:00 +7°C° 0.5 mm 3 mps 706 mmHg 89%
    08:00 +7°C° 0.5 mm 3 mps 706 mmHg 89%
    09:00 +6°C° 0.5 mm 4 mps 706 mmHg 90%
    10:00 +7°C° 0.3 mm 4 mps 706 mmHg 86%
    11:00 +9°C° 0.3 mm 3 mps 707 mmHg 83%
    12:00 +9°C° 0 mm 3 mps 707 mmHg 80%
    13:00 +8°C° 0.3 mm 4 mps 706 mmHg 82%
    14:00 +7°C° 0.3 mm 4 mps 705 mmHg 83%
    15:00 +7°C° 0.3 mm 5 mps 705 mmHg 84%
    16:00 +7°C° 0.3 mm 4 mps 705 mmHg 86%
    17:00 +7°C° 0.3 mm 3 mps 706 mmHg 88%
    18:00 +7°C° 0.3 mm 2 mps 706 mmHg 90%
    19:00 +8°C° 0.1 mm 1 mps 706 mmHg 91%
    20:00 +7°C° 0.1 mm 1 mps 706 mmHg 91%
    21:00 +6°C° 0.1 mm 0 mps 707 mmHg 92%
    22:00 +6°C° 0 mm 0 mps 707 mmHg 92%
    23:00 +6°C° 0 mm 0 mps 707 mmHg 93%

    Tomorrow, 26 January, Sunday

    Time Temperature Precipitation Wind Pressure Humidity
    00:00 +5°C° 0 mm 0 mps 707 mmHg 93%
    01:00 +5°C° 0 mm 0 mps 707 mmHg 93%
    02:00 +5°C° 0 mm 0 mps 707 mmHg 93%
    03:00 +6°C° 0 mm 1 mps 708 mmHg 93%
    04:00 +6°C° 0 mm 1 mps 708 mmHg 93%
    05:00 +6°C° 0 mm 1 mps 708 mmHg 93%
    06:00 +5°C° 0 mm 2 mps 709 mmHg 93%
    07:00 +5°C° 0 mm 2 mps 709 mmHg 90%
    08:00 +5°C° 0 mm 2 mps 710 mmHg 88%
    09:00 +6°C° 0 mm 2 mps 710 mmHg 85%
    10:00 +7°C° 0 mm 2 mps 711 mmHg 79%
    11:00 +8°C° 0 mm 3 mps 711 mmHg 72%
    12:00 +9°C° 0 mm 3 mps 711 mmHg 66%
    13:00 +10°C° 0 mm 3 mps 711 mmHg 64%
    14:00 +10°C° 0 mm 4 mps 711 mmHg 62%
    15:00 +10°C° 0 mm 4 mps 710 mmHg 61%
    16:00 +8°C° 0 mm 4 mps 710 mmHg 67%
    17:00 +7°C° 0 mm 4 mps 710 mmHg 73%
    18:00 +6°C° 0 mm 4 mps 711 mmHg 79%
    19:00 +6°C° 0 mm 4 mps 711 mmHg 81%
    20:00 +5°C° 0 mm 4 mps 711 mmHg 84%
    21:00 +5°C° 0 mm 4 mps 712 mmHg 86%
    22:00 +4°C° 0 mm 3 mps 712 mmHg 87%
    23:00 +4°C° 0 mm 3 mps 712 mmHg 88%

    Day after tomorrow, 27 January, Monday

    Time Temperature Precipitation Wind Pressure Humidity
    00:00 +4°C° 0 mm 3 mps 712 mmHg 89%
    01:00 +4°C° 0 mm 3 mps 712 mmHg 89%
    02:00 +3°C° 0 mm 3 mps 712 mmHg 90%
    03:00 +4°C° 0 mm 2 mps 711 mmHg 90%
    04:00 +4°C° 0 mm 2 mps 711 mmHg 91%
    05:00 +4°C° 0 mm 2 mps 711 mmHg 92%
    06:00 +4°C° 0 mm 2 mps 711 mmHg 92%
    07:00 +5°C° 0 mm 2 mps 711 mmHg 91%
    08:00 +4°C° 0 mm 3 mps 711 mmHg 90%
    09:00 +5°C° 0 mm 3 mps 711 mmHg 88%
    10:00 +5°C° 0 mm 4 mps 711 mmHg 85%
    11:00 +6°C° 0 mm 4 mps 711 mmHg 82%
    12:00 +7°C° 0 mm 5 mps 710 mmHg 78%
    13:00 +7°C° 0 mm 6 mps 710 mmHg 77%
    14:00 +8°C° 0 mm 7 mps 710 mmHg 77%
    15:00 +8°C° 0 mm 7 mps 709 mmHg 76%
    16:00 +8°C° 0 mm 7 mps 709 mmHg 80%
    17:00 +7°C° 0 mm 6 mps 709 mmHg 84%
    18:00 +6°C° 0 mm 5 mps 709 mmHg 89%
    19:00 +6°C° 0 mm 5 mps 709 mmHg 90%
    20:00 +6°C° 0 mm 4 mps 709 mmHg 91%
    21:00 +6°C° 0 mm 4 mps 709 mmHg 93%
    22:00 +7°C° 0 mm 4 mps 709 mmHg 93%
    23:00 +7°C° 0 mm 5 mps 709 mmHg 93%

    28 January, Tuesday

    Time Temperature Precipitation Wind Pressure Humidity
    00:00 +7°C° 0 mm 5 mps 709 mmHg 93%
    01:00 +7°C° 0 mm 5 mps 709 mmHg 94%
    02:00 +7°C° 0 mm 5 mps 709 mmHg 94%
    03:00 +8°C° 0 mm 5 mps 709 mmHg 94%
    04:00 +8°C° 0 mm 5 mps 709 mmHg 94%
    05:00 +8°C° 0 mm 5 mps 709 mmHg 95%
    06:00 +8°C° 0 mm 4 mps 709 mmHg 95%
    07:00 +8°C° 0 mm 5 mps 709 mmHg 94%
    08:00 +8°C° 0 mm 5 mps 709 mmHg 93%
    09:00 +9°C° 0 mm 5 mps 710 mmHg 93%
    10:00 +9°C° 0.1 mm 5 mps 710 mmHg 91%
    11:00 +9°C° 0.1 mm 6 mps 710 mmHg 89%
    12:00 +10°C° 0.1 mm 6 mps 710 mmHg 87%
    13:00 +10°C° 0.1 mm 6 mps 710 mmHg 87%
    14:00 +10°C° 0.1 mm 6 mps 709 mmHg 86%
    15:00 +10°C° 0.1 mm 6 mps 709 mmHg 85%
    16:00 +10°C° 0 mm 6 mps 709 mmHg 87%
    17:00 +10°C° 0 mm 5 mps 709 mmHg 89%
    18:00 +9°C° 0 mm 5 mps 709 mmHg 91%
    19:00 +9°C° 0 mm 5 mps 709 mmHg 92%
    20:00 +9°C° 0 mm 5 mps 710 mmHg 93%
    21:00 +10°C° 0 mm 4 mps 710 mmHg 94%
    22:00 +10°C° 0 mm 4 mps 710 mmHg 94%
    23:00 +10°C° 0 mm 4 mps 710 mmHg 95%

    29 January, Wednesday

    Time Temperature Precipitation Wind Pressure Humidity
    00:00 +10°C° 0 mm 4 mps 710 mmHg 95%
    01:00 +10°C° 0 mm 4 mps 710 mmHg 95%
    02:00 +8°C° 0 mm 4 mps 710 mmHg 95%
    03:00 +8°C° 0 mm 4 mps 710 mmHg 95%
    04:00 +8°C° 0 mm 4 mps 710 mmHg 95%
    05:00 +8°C° 0 mm 4 mps 709 mmHg 95%
    06:00 +8°C° 0 mm 4 mps 709 mmHg 96%
    07:00 +8°C° 0.1 mm 4 mps 710 mmHg 95%
    08:00 +10°C° 0.1 mm 4 mps 710 mmHg 95%
    09:00 +10°C° 0.1 mm 4 mps 711 mmHg 94%
    10:00 +10°C° 0.1 mm 3 mps 711 mmHg 92%
    11:00 +10°C° 0.1 mm 3 mps 711 mmHg 91%
    12:00 +10°C° 0.1 mm 3 mps 711 mmHg 89%
    13:00 +10°C° 0.2 mm 3 mps 710 mmHg 88%
    14:00 +10°C° 0.2 mm 3 mps 710 mmHg 88%
    15:00 +11°C° 0.2 mm 4 mps 710 mmHg 87%
    16:00 +10°C° 0 mm 3 mps 710 mmHg 88%
    17:00 +10°C° 0 mm 3 mps 710 mmHg 89%
    18:00 +9°C° 0 mm 3 mps 710 mmHg 91%
    19:00 +9°C° 0 mm 2 mps 710 mmHg 92%
    20:00 +9°C° 0 mm 2 mps 710 mmHg 93%
    21:00 +9°C° 0 mm 2 mps 711 mmHg 94%
    22:00 +9°C° 0 mm 2 mps 711 mmHg 94%
    23:00 +8°C° 0 mm 2 mps 711 mmHg 94%

    30 January, Thursday

    Time Temperature Precipitation Wind Pressure Humidity
    00:00 +8°C° 0 mm 2 mps 711 mmHg 94%
    01:00 +8°C° 0 mm 2 mps 710 mmHg 95%
    02:00 +8°C° 0 mm 2 mps 710 mmHg 95%
    03:00 +7°C° 0 mm 2 mps 710 mmHg 96%
    04:00 +7°C° 0 mm 2 mps 710 mmHg 96%
    05:00 +7°C° 0 mm 2 mps 710 mmHg 96%
    06:00 +7°C° 0 mm 2 mps 710 mmHg 97%
    07:00 +7°C° 0 mm 2 mps 710 mmHg 95%
    08:00 +8°C° 0 mm 3 mps 711 mmHg 93%
    09:00 +8°C° 0 mm 3 mps 711 mmHg 92%
    10:00 +9°C° 0 mm 3 mps 711 mmHg 87%
    11:00 +9°C° 0 mm 3 mps 711 mmHg 82%
    12:00 +10°C° 0 mm 3 mps 711 mmHg 76%
    13:00 +10°C° 0 mm 4 mps 711 mmHg 75%
    14:00 +10°C° 0 mm 5 mps 710 mmHg 73%
    15:00 +10°C° 0 mm 5 mps 710 mmHg 71%
    16:00 +9°C° 0.2 mm 5 mps 710 mmHg 75%
    17:00 +9°C° 0.2 mm 5 mps 711 mmHg 79%
    18:00 +8°C° 0.2 mm 4 mps 711 mmHg 83%
    19:00 +7°C° 0 mm 4 mps 711 mmHg 85%
    20:00 +7°C° 0 mm 4 mps 711 mmHg 88%
    21:00 +7°C° 0 mm 3 mps 711 mmHg 90%
    22:00 +7°C° 0 mm 3 mps 711 mmHg 91%
    23:00 +7°C° 0 mm 2 mps 711 mmHg 92%
    Show more